DW8694 Weather Reports


Display with metric or nautical units.
time (UTC)temp
F
wind
direction
speed
MPH
gust
MPH
rain 1hr
in
rain 24hr
in
rain mn
in
humidity
%
barometer
mb
20260504023004 54 346 2.0 0.0 0.00 0.00 0.00 34 1011.3
20260504021502 54 321 2.0 0.0 0.00 0.00 0.00 36 1011.2
20260504020002 54 331 2.0 0.0 0.00 0.00 0.00 39 1011.2
20260504014604 54 327 1.0 0.0 0.00 0.00 0.00 39 1011.0
20260504013059 55 330 2.0 0.0 0.00 0.00 0.00 39 1011.0
20260504011559 56 338 3.0 0.0 0.00 0.00 0.00 37 1010.9
20260504010057 57 328 3.0 0.0 0.00 0.00 0.00 34 1010.6
20260504004555 57 331 2.0 0.0 0.00 0.00 0.00 34 1010.4
20260504003053 57 328 2.0 0.0 0.00 0.00 0.00 35 1010.2
20260504001555 58 332 2.0 0.0 0.00 0.00 0.00 37 1010.0
20260504000051 58 329 1.0 0.0 0.00 0.00 0.00 38 1010.0
20260503234610 58 324 1.0 0.0 0.00 0.00 0.00 37 1009.8
20260503233051 58 337 1.0 0.0 0.00 0.00 0.00 37 1009.7
20260503231547 58 335 2.0 0.0 0.00 0.00 0.00 37 1009.5
20260503230049 59 339 2.0 0.0 0.00 0.00 0.00 35 1009.5
20260503224545 58 322 2.0 0.0 0.00 0.00 0.00 36 1009.2
20260503223043 60 330 2.0 0.0 0.00 0.00 0.00 34 1009.1
20260503221554 60 319 2.0 0.0 0.00 0.00 0.00 32 1009.0
20260503220042 60 338 2.0 0.0 0.00 0.00 0.00 32 1008.9
20260503214541 60 331 1.0 0.0 0.00 0.00 0.00 33 1008.7
20260503213043 60 325 2.0 0.0 0.00 0.00 0.00 32 1008.8
20260503211540 60 323 2.0 0.0 0.00 0.00 0.00 32 1008.8
20260503210040 60 236 2.0 0.0 0.00 0.00 0.00 32 1008.7
20260503204543 60 317 2.0 0.0 0.00 0.00 0.00 32 1008.7
20260503203053 61 325 1.0 0.0 0.00 0.00 0.00 33 1008.7
20260503201539 60 279 1.0 0.0 0.00 0.00 0.00 34 1008.7
20260503200039 60 333 2.0 0.0 0.00 0.00 0.00 33 1008.6
20260503194541 61 327 2.0 0.0 0.00 0.00 0.00 32 1008.5
20260503193038 62 5 2.0 0.0 0.00 0.00 0.00 30 1008.5
20260503191537 61 328 2.0 0.0 0.00 0.00 0.00 30 1008.3
20260503190041 62 325 2.0 0.0 0.00 0.00 0.00 30 1008.2
20260503184535 63 322 2.0 0.0 0.00 0.00 0.00 29 1008.4
20260503183034 62 342 1.0 0.0 0.00 0.00 0.00 32 1008.4
20260503181533 63 304 1.0 0.0 0.00 0.00 0.00 31 1008.2
20260503180032 62 330 2.0 0.0 0.00 0.00 0.00 32 1008.3
20260503174530 62 328 2.0 0.0 0.00 0.00 0.00 34 1008.4
20260503173030 61 334 2.0 0.0 0.00 0.00 0.00 34 1008.3
20260503171529 62 334 2.0 0.0 0.00 0.00 0.00 33 1008.2
20260503140109 56 224 1.0 0.0 0.00 0.00 0.00 47 1007.6
20260503081516 55 233 0.0 0.0 0.00 0.00 0.00 40 1008.4
20260503071513 56 225 0.0 0.0 0.00 0.00 0.00 40 1008.9
20260503054602 55 231 0.0 0.0 0.00 0.00 0.00 45 1008.6
20260503053059 56 231 0.0 0.0 0.00 0.00 0.00 45 1008.4
20260503051558 55 231 0.0 0.0 0.00 0.00 0.00 45 1008.5
20260503050057 55 231 0.0 0.0 0.00 0.00 0.00 45 1008.5
20260503044557 55 231 0.0 0.0 0.00 0.00 0.00 43 1008.5
20260503043056 56 231 0.0 0.0 0.00 0.00 0.00 40 1008.3
20260503041556 58 231 0.0 0.0 0.00 0.00 0.00 38 1008.1
20260503040111 59 231 0.0 0.0 0.00 0.00 0.00 35 1008.3
20260503034555 61 231 0.0 0.0 0.00 0.00 0.00 32 1008.3
20260503033054 63 231 0.0 0.0 0.00 0.00 0.00 31 1008.3
20260503031604 64 231 0.0 0.0 0.00 0.00 0.00 29 1008.1
20260503030054 66 231 0.0 0.0 0.00 0.00 0.00 27 1008.2
20260503024552 67 231 0.0 0.0 0.00 0.00 0.00 25 1008.2